STARLINK-1471, 45735

Orbit data source: Space-Track

STARLINK-1471, 45735 is a payload satellite owned by SpaceX/Seattle (US) in LEO that was launched on Sat, 13 Jun 2020 UTC via an FALCON 9 launch vehicle from the Air Force Eastern Test Range (AFETR). Payload-class satellites include a variety of spacecraft equipped with specific instruments for various scientific and technological missions. These include communications satellites like Starlink; space stations such as the ISS; scientific satellites like the Hubble; Earth observation satellites from companies like Planet Labs, Umbra, and HawkEye 360; GPS; miniature CubeSats for education and research; and military/defense satellites.

Loading next visibility...
Identifier
45735, 2020-038F
Orbit
LEO
Last TLE update
15 hours ago
Origin
Manufacturer
SpaceX/Seattle
Mission
Partially operational Commercial Communications
Bus & Motor
STARLINK, Unknown motor
Mass
260 kg wet, ~248 kg dry
Launch date (UTC)
2020-06-13 (5 years ago)
Launch vehicle
FALCON 9
Launch site
Air Force Eastern Test Range (AFETR)
Object type
Payload
Rocket body
Debris
Shape & HBR
Box + 1 Pan, 4.4 m
Radar Cross Section
13.562 m², Large (>1 m²)

Expand to show TLE details & history

TLE from 15 hours ago
0 STARLINK-1471
1 45735U 20038F   25199.34051677  .00011322  00000-0  33206-3 0  9992
2 45735  53.0519 172.3058 0001596 112.5654 247.5516 15.35675640281384
Epoch: 2025-07-18T08:10Z
TLE epoch observation values (Epoch: 2025-07-18T08:10:20.648Z)
Latitude
-0.0001°
Longitude
113.32631°
Altitude
460.221 km
Speed
7.638 km/s
True Right ascension
11h 29m 13s
True Declination
0° 00' 00"
Sunlit
Object was in daylight at epoch
Visualization orbit readout
Latitude
-53.08111°
Longitude
14.92942°
Altitude
478.275 km
Speed
7.626 km/s
Apparent Right ascension
02h 19m 11s
Apparent Declination
-52° 20' 58"
Sunlit
Object is in daylight
Visualization observer readout
Local Sidereal Time
12:10:47
Azimuth
229.706° WSW
Elevation
-64.812°
Doppler factor
1
Orbital elements
Apogee altitude
460.28 km
Perigee altitude
458.098 km
Semi-major axis
6,837.326 km
Eccentricity
0.00016
Inclination
53.0519°
RAAN
172.3058°
Arg. of periapsis
112.5654°
True anomaly
247.5347°
Mean anomaly
247.5516°
Eccentric anomaly
247.54315°
Mean motion
3.83896 °/min
Orbital period
93.78 mins
BSTAR
0.00033206
Loading maneuver chart data...
Loading SW <> Apogee altitude chart data...
|